[[{"header":{"parameterUnit":"m.s-1","parameterCategory":1,"la1":30.2991,"la2":30.254,"lo1":-89.0895,"lo2":-89.0444,"dy":0.0017,"dx":0.0017,"nx":28,"ny":28,"refTime":"2025-11-24T09:00:00:Z","depth":0,"parameterNumber":2,"parameterNumberName":"U-component_of_WINDS"},"data":[0,0,0,0,0,0,0,0,0,0,0,0,0,0,0,0,0,0,0,0,0,0,0,0,0,0,0,0,0,0,0,0,0,0,0,0,0,0,0,0,0,0,0,0,0,0,0,0,0,0,0,0,0,0,0,0,0,0,-1.2913,-1.2912,0,-1.2871,-1.287,-1.287,-1.284,-1.284,-1.284,-1.284,-1.2798,-1.2798,-1.2797,0,0,0,0,0,0,0,0,0,0,0,0,0,-1.2969,-1.2969,-1.2913,-1.2912,-1.2912,-1.2871,-1.287,-1.287,-1.284,-1.284,-1.284,-1.2839,-1.2799,-1.2798,-1.2797,0,0,0,0,0,0,0,0,0,0,0,0,0,-1.2938,-1.2968,-1.2913,-1.2892,-1.289,-1.2871,-1.287,-1.287,-1.284,-1.284,-1.284,-1.2839,-1.2799,-1.2798,-1.2797,-1.2796,0,0,-1.2793,-1.2792,0,0,0,0,0,0,0,0,-1.294,-1.2936,-1.2896,-1.2893,-1.2891,-1.286,-1.2875,-1.2845,-1.284,-1.2859,-1.284,-1.2839,-1.2819,-1.2816,-1.2809,-1.2794,-1.2792,-1.2792,-1.2792,-1.2791,-1.2791,0,0,0,0,0,0,0,-1.2942,-1.2938,-1.2896,-1.2895,-1.2892,-1.2886,-1.2881,-1.2869,-1.2842,-1.2858,-1.2855,-1.2851,-1.2818,-1.2811,-1.2808,-1.2791,-1.2792,-1.2791,-1.2791,-1.279,-1.2773,-1.2774,0,0,0,0,0,0,-1.2947,-1.294,-1.2898,-1.2895,-1.2915,-1.2885,-1.2879,-1.2871,-1.2842,-1.2837,-1.2851,-1.2849,-1.2813,-1.281,-1.2807,-1.2803,-1.2791,-1.279,-1.2789,-1.2773,-1.2773,-1.2774,0,0,0,0,0,0,-1.2949,-1.2944,-1.2899,-1.2917,-1.291,-1.2884,-1.2875,-1.287,-1.2862,-1.2837,-1.2832,-1.2848,-1.2813,-1.2809,-1.2799,-1.2802,-1.2789,-1.2788,-1.2773,-1.2773,-1.2773,-1.2797,0,0,0,0,0,0,-1.295,-1.2944,-1.2943,-1.2917,-1.291,-1.2891,-1.2875,-1.2869,-1.286,-1.2858,-1.2833,-1.2829,-1.2812,-1.2801,-1.2797,-1.28,-1.2787,-1.2772,-1.2773,-1.2773,-1.2796,-1.2798,-1.2801,0,0,0,0,0,-1.2952,-1.2952,-1.2943,-1.2938,-1.2907,-1.2891,-1.2887,-1.2867,-1.286,-1.2859,-1.2843,-1.283,-1.2802,-1.28,-1.2796,-1.2798,-1.2772,-1.2773,-1.2773,-1.2795,-1.2798,-1.2801,0,0,0,0,0,0,-1.298,-1.2948,-1.2938,-1.2929,-1.2913,-1.2886,-1.2884,-1.2871,-1.2857,-1.2856,-1.2833,-1.2827,-1.282,-1.2808,-1.2806,-1.2796,-1.2785,-1.2785,-1.2803,-1.2806,-1.2808,-1.2811,-1.2786,0,0,0,0,0,-1.2984,-1.2973,-1.2947,-1.2941,-1.2934,-1.291,-1.2903,-1.2889,-1.2872,-1.2865,-1.2848,-1.2832,-1.282,-1.2813,-1.28,-1.2795,-1.2789,-1.2794,-1.2797,-1.2799,-1.2798,-1.2795,-1.2797,-1.2776,-1.2776,-1.2776,0,0,-1.2994,-1.2976,-1.297,-1.2946,-1.2932,-1.2922,-1.2905,-1.2895,-1.2887,-1.2864,-1.2853,-1.284,-1.2821,-1.2813,-1.2809,-1.2803,-1.2803,-1.28,-1.2801,-1.28,-1.2796,-1.2798,-1.2799,-1.2777,-1.2777,-1.2777,0,0,-1.3007,-1.2992,-1.2985,-1.2972,-1.2951,-1.2936,-1.2934,-1.291,-1.29,-1.2889,-1.2871,-1.2862,-1.2842,-1.2829,-1.282,-1.2829,-1.2816,-1.2826,-1.2837,-1.2834,-1.2835,-1.2837,-1.2839,-1.2841,-1.2826,-1.2826,-1.2826,0,-1.3022,-1.3005,-1.2984,-1.2974,-1.2965,-1.2943,-1.2937,-1.2925,-1.2901,-1.2895,-1.2889,-1.2863,-1.2849,-1.2838,-1.284,-1.2834,-1.2832,-1.2828,-1.2837,-1.2838,-1.2839,-1.2841,-1.2842,-1.2827,-1.2827,-1.2827,-1.2827,0,-1.3024,-1.3013,-1.301,-1.2987,-1.2977,-1.297,-1.2948,-1.2941,-1.2929,-1.2914,-1.2903,-1.2886,-1.2869,-1.2866,-1.2854,-1.2854,-1.285,-1.2841,-1.283,-1.2842,-1.2844,-1.2845,-1.2829,-1.2829,-1.2828,-1.2828,0,0,-1.3051,-1.3017,-1.3017,-1.3006,-1.2982,-1.2973,-1.2965,-1.2948,-1.2942,-1.2927,-1.292,-1.2903,-1.2895,-1.2884,-1.2871,-1.2868,-1.2876,-1.2859,-1.2858,-1.2862,-1.2874,-1.288,-1.2882,-1.2868,-1.2868,-1.2868,-1.2875,0,-1.3059,-1.3042,-1.3024,-1.3014,-1.3003,-1.2983,-1.2976,-1.2961,-1.2948,-1.2937,-1.2923,-1.2911,-1.2901,-1.2895,-1.2891,-1.2876,-1.2878,-1.2875,-1.2861,-1.2861,-1.2865,-1.2883,-1.2889,-1.2897,-1.2876,-1.2876,-1.2876,0,-1.3066,-1.3051,-1.304,-1.3017,-1.3012,-1.3005,-1.2989,-1.2979,-1.2962,-1.2953,-1.2942,-1.2927,-1.2919,-1.291,-1.2897,-1.2896,-1.2889,-1.2881,-1.2881,-1.2878,-1.2868,-1.2879,-1.2899,-1.29,-1.2877,-1.2877,-1.2877,0,-1.3086,-1.3064,-1.3054,-1.3045,-1.3019,-1.3015,-1.3003,-1.2986,-1.2977,-1.2963,-1.2957,-1.2943,-1.2935,-1.2925,-1.2907,-1.2903,-1.2897,-1.2887,-1.2889,-1.2889,-1.2887,-1.2887,-1.2905,-1.2885,-1.2885,-1.2885,-1.2885,0,-1.3097,-1.309,-1.3062,-1.3056,-1.3049,-1.3028,-1.3021,-1.3009,-1.2993,-1.2985,-1.2968,-1.296,-1.2938,-1.2928,-1.2915,-1.2907,-1.2904,-1.2896,-1.2892,-1.2897,-1.2898,-1.2891,-1.289,-1.2885,-1.2885,-1.2885,-1.2885,0,-1.3117,-1.3098,-1.3086,-1.3062,-1.3055,-1.3051,-1.303,-1.3024,-1.301,-1.3,-1.2996,-1.2975,-1.2962,-1.2944,-1.2927,-1.2918,-1.2911,-1.2906,-1.2917,-1.2914,-1.2917,-1.2917,-1.293,-1.2931,-1.2912,-1.2912,-1.2912,0,-1.3124,-1.3119,-1.3094,-1.3087,-1.3076,-1.3064,-1.3055,-1.3036,-1.3027,-1.3008,-1.3004,-1.299,-1.2978,-1.2959,-1.2942,-1.2929,-1.2923,-1.2928,-1.292,-1.2925,-1.2922,-1.2922,-1.2921,-1.293,-1.293,-1.293,-1.2931,0,-1.3139,-1.313,-1.3117,-1.3101,-1.3091,-1.3078,-1.3064,-1.3059,-1.3037,-1.3028,-1.3015,-1.3005,-1.2987,-1.2974,-1.2958,-1.2948,-1.2935,-1.2933,-1.2933,-1.2937,-1.2943,-1.2939,-1.2921,-1.2933,-1.2933,-1.2932,-1.2932,-1.2932,-1.3152,-1.3146,-1.3128,-1.3115,-1.3102,-1.3089,-1.3082,-1.3068,-1.3056,-1.3039,-1.3029,-1.3016,-1.3,-1.2977,-1.2967,-1.2958,-1.2953,-1.2952,-1.2952,-1.2952,-1.2953,-1.2946,-1.2955,-1.2955,-1.2955,-1.2955,-1.2955,0,-1.3166,-1.3153,-1.3141,-1.3121,-1.3111,-1.31,-1.3085,-1.3077,-1.3065,-1.3051,-1.3039,-1.3024,-1.3012,-1.2994,-1.298,-1.2976,-1.297,-1.2973,-1.2972,-1.297,-1.2959,-1.296,-1.2978,-1.2978,-1.2978,-1.2978,-1.2978,-1.2978,-1.3171,-1.316,-1.3149,-1.3133,-1.312,-1.3107,-1.3099,-1.3088,-1.3076,-1.306,-1.3049,-1.3037,-1.3022,-1.3007,-1.2995,-1.299,-1.2985,-1.299,-1.2983,-1.2973,-1.2971,-1.2969,-1.297,-1.2989,-1.2989,-1.2995,-1.2995,-1.2995]},{"header":{"parameterUnit":"m.s-1","parameterCategory":1,"la1":30.2991,"la2":30.254,"lo1":-89.0895,"lo2":-89.0444,"dy":0.0017,"dx":0.0017,"nx":28,"ny":28,"refTime":"2025-11-24T09:00:00:Z","depth":0,"parameterNumber":3,"parameterNumberName":"V-component_of_WINDS"},"data":[0,0,0,0,0,0,0,0,0,0,0,0,0,0,0,0,0,0,0,0,0,0,0,0,0,0,0,0,0,0,0,0,0,0,0,0,0,0,0,0,0,0,0,0,0,0,0,0,0,0,0,0,0,0,0,0,0,0,4.5452,4.5452,0,4.5436,4.5436,4.5436,4.5369,4.5367,4.5366,4.5364,4.5347,4.5348,4.5349,0,0,0,0,0,0,0,0,0,0,0,0,0,4.5426,4.5427,4.5452,4.5452,4.5452,4.5436,4.5436,4.5436,4.5369,4.5367,4.5365,4.5364,4.5347,4.5348,4.5349,0,0,0,0,0,0,0,0,0,0,0,0,0,4.5426,4.5427,4.5452,4.5417,4.5413,4.5436,4.5436,4.5435,4.537,4.5367,4.5365,4.5363,4.5347,4.5348,4.5349,4.5405,0,0,4.5354,4.5355,0,0,0,0,0,0,0,0,4.5426,4.5427,4.5422,4.5419,4.5416,4.5402,4.542,4.5425,4.537,4.5386,4.5364,4.5362,4.5367,4.5367,4.5369,4.5404,4.5403,4.5354,4.5355,4.5356,4.5356,0,0,0,0,0,0,0,4.5426,4.5428,4.5446,4.5422,4.5418,4.5402,4.5399,4.5421,4.539,4.5385,4.538,4.5379,4.5365,4.5368,4.5368,4.5403,4.5354,4.5355,4.5356,4.5357,4.5485,4.5487,0,0,0,0,0,0,4.5432,4.5428,4.5446,4.5445,4.5415,4.5404,4.5401,4.5409,4.5389,4.5384,4.5381,4.5376,4.5366,4.5366,4.5367,4.5433,4.5356,4.5357,4.5358,4.5482,4.5485,4.5488,0,0,0,0,0,0,4.5431,4.5434,4.5447,4.5435,4.5436,4.5407,4.5416,4.541,4.5412,4.5387,4.5381,4.5389,4.5364,4.5365,4.5396,4.5431,4.5358,4.5359,4.5479,4.5483,4.5487,4.5563,0,0,0,0,0,0,4.5431,4.5434,4.5455,4.5436,4.5437,4.5477,4.5418,4.5411,4.5415,4.5408,4.5393,4.5388,4.5363,4.5395,4.5398,4.5432,4.536,4.5476,4.5481,4.5486,4.5557,4.5569,4.5579,0,0,0,0,0,4.543,4.5476,4.5456,4.5458,4.5462,4.5479,4.5479,4.5449,4.5418,4.5439,4.5423,4.5389,4.5426,4.5398,4.5402,4.5436,4.5474,4.548,4.5485,4.5552,4.5567,4.5578,0,0,0,0,0,0,4.5498,4.5473,4.545,4.5492,4.5488,4.5467,4.5492,4.5464,4.5469,4.5462,4.5425,4.5422,4.5459,4.545,4.542,4.549,4.5445,4.5451,4.5495,4.5508,4.5518,4.552,4.5361,0,0,0,0,0,4.5518,4.5534,4.5511,4.5549,4.5549,4.5521,4.5527,4.5505,4.5499,4.5497,4.5483,4.5479,4.549,4.5498,4.5507,4.5555,4.5552,4.5581,4.5592,4.56,4.5607,4.5634,4.5648,4.5507,4.5507,4.5507,0,0,4.5559,4.5547,4.5559,4.5563,4.5557,4.5575,4.552,4.5541,4.5554,4.55,4.553,4.5519,4.5512,4.5553,4.557,4.5547,4.5645,4.5608,4.5615,4.5617,4.5642,4.5655,4.5667,4.5511,4.551,4.5509,0,0,4.5644,4.5635,4.5668,4.5664,4.5657,4.5638,4.5646,4.563,4.5622,4.5651,4.5612,4.5626,4.5646,4.5643,4.5644,4.573,4.57,4.5734,4.5791,4.5818,4.5829,4.5839,4.5871,4.5883,4.574,4.574,4.574,0,4.5696,4.5721,4.5688,4.5712,4.5716,4.5669,4.5702,4.5699,4.5695,4.5699,4.5673,4.5698,4.5689,4.573,4.5751,4.5753,4.5762,4.5736,4.583,4.5839,4.5848,4.5879,4.5891,4.5745,4.5744,4.5744,4.5743,0,4.5787,4.5805,4.5832,4.5831,4.5837,4.5866,4.5838,4.5848,4.5825,4.581,4.5841,4.583,4.5836,4.5844,4.5821,4.5882,4.5868,4.5837,4.579,4.5866,4.5895,4.5906,4.5751,4.5749,4.5748,4.5747,0,0,4.5913,4.5895,4.5905,4.5905,4.5894,4.5908,4.5935,4.5942,4.5953,4.5952,4.5974,4.5993,4.5964,4.5965,4.5942,4.5966,4.6037,4.5931,4.593,4.5953,4.6106,4.6132,4.6146,4.6016,4.6018,4.602,4.6108,0,4.5996,4.6041,4.6014,4.6064,4.6082,4.6038,4.6061,4.6058,4.6044,4.6057,4.6042,4.6057,4.6017,4.6018,4.6039,4.6024,4.6068,4.6017,4.6038,4.604,4.6044,4.616,4.6187,4.627,4.6118,4.612,4.6121,0,4.6098,4.6103,4.6156,4.6144,4.615,4.6172,4.6177,4.619,4.6185,4.6174,4.6177,4.6148,4.6175,4.6128,4.6165,4.6131,4.6138,4.6132,4.6135,4.6137,4.6086,4.6168,4.6295,4.6309,4.6138,4.6137,4.6135,0,4.6188,4.6208,4.6242,4.6243,4.6229,4.6246,4.6241,4.6234,4.6241,4.6246,4.625,4.6257,4.6262,4.6268,4.6243,4.6211,4.6284,4.6234,4.6276,4.6277,4.6295,4.6294,4.6428,4.6296,4.6296,4.6296,4.6295,0,4.6284,4.6319,4.6283,4.6305,4.6342,4.631,4.6348,4.6338,4.6333,4.6352,4.6314,4.6333,4.6297,4.6312,4.6292,4.6327,4.6328,4.6321,4.6315,4.6326,4.6327,4.6331,4.6325,4.6299,4.6298,4.6298,4.6297,0,4.6392,4.6369,4.6405,4.6389,4.6386,4.6415,4.6402,4.6421,4.6406,4.6431,4.6435,4.641,4.6427,4.6402,4.6414,4.6401,4.645,4.6434,4.6452,4.6448,4.6492,4.649,4.6635,4.6653,4.6508,4.6509,4.651,0,4.6456,4.6482,4.647,4.6481,4.6478,4.6495,4.6503,4.6472,4.6481,4.6479,4.6499,4.6513,4.6522,4.655,4.6534,4.6544,4.653,4.658,4.6531,4.6541,4.6533,4.6533,4.6537,4.6591,4.6592,4.6594,4.6595,0,4.6573,4.6561,4.6573,4.6582,4.6593,4.6598,4.66,4.6611,4.6579,4.6591,4.6608,4.6616,4.663,4.6644,4.6651,4.6645,4.6616,4.661,4.6621,4.6632,4.6643,4.664,4.6482,4.6607,4.6606,4.6605,4.6604,4.6604,4.6662,4.6684,4.668,4.6695,4.6694,4.6698,4.6717,4.6704,4.6718,4.6728,4.6708,4.6731,4.6727,4.6732,4.6731,4.6748,4.6726,4.6741,4.6745,4.675,4.6758,4.6638,4.6749,4.6748,4.6748,4.6747,4.6747,0,4.6779,4.6774,4.6789,4.6795,4.6808,4.6778,4.678,4.6793,4.6813,4.6812,4.6823,4.6843,4.6857,4.6842,4.6854,4.6871,4.6858,4.6875,4.6875,4.6874,4.6775,4.6766,4.6886,4.6886,4.6886,4.6886,4.6886,4.6886,4.6841,4.6878,4.6865,4.6901,4.6896,4.6919,4.6923,4.6926,4.6926,4.6951,4.6963,4.6953,4.6947,4.6958,4.697,4.6965,4.6972,4.6995,4.6986,4.6894,4.6881,4.6868,4.6859,4.6996,4.6997,4.7084,4.7085,4.7085]}]]